Regional Weather Roundup
Issued by NWS

Home | Current Version | Previous Version | Text Only | Print | Product List | Glossary On
Versions: 1 2 3 4 5 6 7 8 9 10 11 12 13 14 15 16 17 18 19 20 21 22 23 24 25 26 27 28 29 30 31 32 33 34 35 36 37 38 39 40 41 42 43 44 45 46 47 48 49 50
000
ASUS43 KTOP 270159
RWRKS

WEATHER ROUNDUP FOR KANSAS
NATIONAL WEATHER SERVICE GOODLAND KS
900 PM CDT THU MAY 26 2016

NOTE:  "FAIR" INDICATES FEW OR NO CLOUDS BELOW 12,000 FEET WITH NO
SIGNIFICANT WEATHER AND/OR OBSTRUCTIONS TO VISIBILITY.

KSZ001>006-013>018-027>032-041>047-270300-
NORTHWEST KANSAS

CITY           SKY/WX    TMP DP  RH WIND       PRES   REMARKS
HAYS           CLOUDY    32 N/A N/A E29G41    29.64R THUNDER WCI  18
HILL CITY      CLOUDY    65  58  78 E5        29.62F
RUSSELL        TSTM      59  56  89 SE22      29.73R
$$

KSZ061>065-074>080-084>089-270300-
SOUTHWEST KANSAS

CITY           SKY/WX    TMP DP  RH WIND       PRES   REMARKS
DODGE CITY     CLOUDY    62  54  74 SE13G24   29.59F
ELKHART          N/A     70  42  36 NW15        N/A
GARDEN CITY    CLOUDY    75  29  18 SW12      29.57S
GREAT BEND     CLOUDY    57  48  72 E10       29.69F THUNDER
LIBERAL        CLEAR     72  36  26 SW9       29.61R
$$

KSZ066>073-081>083-090>101-270300-
SOUTHEAST KANSAS

CITY           SKY/WX    TMP DP  RH WIND       PRES   REMARKS
CHANUTE        CLEAR     75  66  73 S9        29.76S
COFFEYVILLE    CLEAR     74  68  81 S13       29.75S
HUTCHINSON     PTCLDY    66  62  87 E17       29.68F
MEDICINE LODGE   N/A     78  63  59 SE13G20   29.61R
NEWTON         CLOUDY    63  57  82 E10G18    29.77R
PARSONS        CLEAR     75  68  78 S12G18    29.78R
WICHITA INTL   MOCLDY    78  65  63 SE18G29   29.69R
WICHITA JABRA  CLOUDY    77  67  71 SE8       29.72R
WINFIELD       CLEAR     76  66  71 S17G32    29.70S
$$

KSZ007>012-019>026-033>040-048>060-102>105-270300-
NORTHEAST KANSAS

CITY           SKY/WX    TMP DP  RH WIND       PRES   REMARKS
CONCORDIA      TSTM      62  58  86 E18G29    29.73R
EMPORIA        TSTM      61  60  97 N22G31    29.82S
LAWRENCE       TSTM      62  61  96 NE8       29.90R FOG
MANHATTAN      LGT RAIN  64  59  83 E18G24    29.77S
OLATHE IND     LGT RAIN  63  60  90 E10       29.86R
OLATHE EXE     RAIN      62  60  93 E14       29.86R FOG
SALINA         CLOUDY    65  61  87 E15G25    29.69F
TOPEKA BILLARD TSTM      63  60  90 NE14      29.86F
TOPEKA FORBES  TSTM      63  61  93 E9        29.88R FOG
$$



USA.gov is the U.S. government's official web portal to all federal, state and local government web resources and services.